KB1MIM Weather Reports


Display with metric or nautical units.
time (UTC)temp
F
wind
direction
speed
MPH
gust
MPH
rain 1hr
in
rain 24hr
in
rain mn
in
humidity
%
barometer
mb
20210801140100 68 235 0.0 1.0 0.00 0.00 0.00 74 1013.0
20210801134642 66 68 0.0 1.0 0.00 0.00 0.00 76 1013.0
20210801133113 64 37 0.0 1.0 0.00 0.00 0.00 79 1013.0
20210801131557 62 37 0.0 1.0 0.00 0.00 0.00 84 1013.2
20210801130058 61 39 0.0 1.0 0.00 0.00 0.00 86 1013.5
20210801124547 60 12 0.0 0.0 0.00 0.00 0.00 88 1013.6
20210801123114 59 49 0.0 1.0 0.00 0.00 0.00 89 1013.7
20210801121523 58 358 0.0 1.0 0.00 0.00 0.00 94 1013.9
20210801120017 57 350 0.0 1.0 0.00 0.00 0.00 96 1013.9
20210801114555 56 349 0.0 0.0 0.00 0.00 0.00 97 1013.9
20210801113009 55 349 0.0 1.0 0.00 0.00 0.00 97 1013.9
20210801111518 54 330 0.0 0.0 0.00 0.00 0.00 97 1013.9
20210801110008 53 330 0.0 0.0 0.00 0.00 0.00 97 1014.0
20210801104509 53 330 0.0 0.0 0.00 0.00 0.00 97 1014.0
20210801103012 53 330 0.0 0.0 0.00 0.00 0.00 97 1013.8
20210801101512 53 330 0.0 0.0 0.00 0.00 0.00 97 1013.9
20210801100005 53 330 0.0 0.0 0.00 0.00 0.00 97 1013.7
20210801094507 52 330 0.0 0.0 0.00 0.00 0.00 97 1013.7
20210801093002 52 330 0.0 0.0 0.00 0.00 0.00 97 1013.7
20210801091504 52 330 0.0 0.0 0.00 0.00 0.00 97 1013.5
20210801090149 52 330 0.0 0.0 0.00 0.00 0.00 97 1013.3
20210801084655 52 330 0.0 0.0 0.00 0.00 0.00 96 1013.3
20210801083145 52 330 0.0 0.0 0.00 0.00 0.00 96 1013.3
20210801081704 52 330 0.0 0.0 0.00 0.00 0.00 96 1013.3
20210801080345 53 330 0.0 0.0 0.00 0.00 0.00 96 1013.2
20210801074613 53 330 0.0 0.0 0.00 0.00 0.00 96 1013.2
20210801073219 53 330 0.0 0.0 0.00 0.00 0.00 96 1013.2
20210801071625 53 330 0.0 0.0 0.00 0.00 0.00 96 1013.1
20210801070151 54 330 0.0 0.0 0.00 0.00 0.00 96 1013.1
20210801064559 54 330 0.0 0.0 0.00 0.00 0.00 95 1013.4
20210801063118 54 330 0.0 0.0 0.00 0.00 0.00 95 1013.3
20210801061547 54 330 0.0 0.0 0.00 0.00 0.00 94 1013.4
20210801060208 55 330 0.0 0.0 0.00 0.00 0.00 94 1013.6
20210801053146 56 330 0.0 0.0 0.00 0.00 0.00 92 1013.6
20210801051606 56 330 0.0 0.0 0.00 0.00 0.00 93 1013.7
20210801050050 56 330 0.0 0.0 0.00 0.00 0.00 92 1013.8
20210801044709 56 330 0.0 0.0 0.00 0.00 0.00 92 1013.7
20210801043100 56 330 0.0 0.0 0.00 0.00 0.00 92 1013.8
20210801041643 56 330 0.0 0.0 0.00 0.00 0.00 91 1013.7
20210801040100 56 330 0.0 0.0 0.00 0.00 0.00 91 1013.6
20210801034622 56 330 0.0 0.0 0.00 0.00 0.00 90 1013.6
20210801033124 56 330 0.0 0.0 0.00 0.00 0.00 89 1013.6
20210801031636 56 330 0.0 0.0 0.00 0.00 0.00 88 1013.5
20210801030111 57 330 0.0 0.0 0.00 0.00 0.00 88 1013.6
20210801024533 57 330 0.0 0.0 0.00 0.00 0.00 87 1013.6
20210801023045 58 330 0.0 0.0 0.00 0.00 0.00 85 1013.7
20210801021545 58 330 0.0 0.0 0.00 0.00 0.00 84 1013.6
20210801020047 59 330 0.0 0.0 0.00 0.00 0.00 83 1013.6
20210801014542 59 330 0.0 0.0 0.00 0.00 0.00 83 1013.6
20210801013110 60 330 0.0 0.0 0.00 0.00 0.00 82 1013.6
20210801011551 61 330 0.0 0.0 0.00 0.00 0.00 82 1013.7
20210801010105 61 330 0.0 0.0 0.00 0.00 0.00 80 1013.5
20210801004557 62 330 0.0 0.0 0.00 0.00 0.00 77 1013.2
20210801003024 63 330 0.0 0.0 0.00 0.00 0.00 75 1013.1
20210801001524 64 330 0.0 0.0 0.00 0.00 0.00 72 1013.0
20210731234535 67 330 0.0 0.0 0.00 0.00 0.00 64 1012.8
20210731233042 68 330 0.0 0.0 0.00 0.00 0.00 60 1012.6
20210731231519 69 330 0.0 1.0 0.00 0.00 0.00 57 1012.5
20210731230024 70 330 0.0 1.0 0.00 0.00 0.00 56 1012.5
20210731224522 70 31 0.0 2.0 0.00 0.00 0.00 54 1012.7
20210731223016 71 248 0.0 1.0 0.00 0.00 0.00 52 1012.6
20210731221519 72 269 0.0 3.0 0.00 0.00 0.00 51 1012.5
20210731220024 73 297 0.0 3.0 0.00 0.00 0.00 48 1012.6
20210731214549 74 9 0.0 4.0 0.00 0.00 0.00 50 1012.7
20210731213031 74 23 0.0 2.0 0.00 0.00 0.00 48 1012.7
20210731211526 74 79 0.0 3.0 0.00 0.00 0.00 50 1012.7
20210731210009 72 38 0.0 2.0 0.00 0.00 0.00 51 1012.8
20210731204507 72 274 0.0 3.0 0.00 0.00 0.00 50 1012.9
20210731203012 73 9 0.0 3.0 0.00 0.00 0.00 51 1012.9
20210731201509 73 51 0.0 3.0 0.00 0.00 0.00 52 1012.8
20210731200013 73 304 0.0 2.0 0.00 0.00 0.00 48 1012.7
20210731194511 73 18 0.0 2.0 0.00 0.00 0.00 53 1012.6
20210731193005 72 28 0.0 2.0 0.00 0.00 0.00 50 1012.7
20210731191508 72 25 0.0 1.0 0.00 0.00 0.00 49 1012.7
20210731190030 72 27 0.0 1.0 0.00 0.00 0.00 49 1012.7
20210731184510 73 33 0.0 1.0 0.00 0.00 0.00 49 1012.7
20210731183002 73 27 0.0 4.0 0.00 0.00 0.00 51 1012.7
20210731181504 72 289 0.0 3.0 0.00 0.00 0.00 48 1012.8
20210731180002 73 18 1.0 5.0 0.00 0.00 0.00 46 1013.0
20210731174501 73 39 0.0 5.0 0.00 0.00 0.00 46 1013.1
20210731173205 73 49 0.0 5.0 0.00 0.00 0.00 45 1013.2
20210731171726 73 68 0.0 1.0 0.00 0.00 0.00 49 1013.3
20210731170154 72 53 1.0 5.0 0.00 0.00 0.00 48 1013.4
20210731164636 72 85 0.0 3.0 0.00 0.00 0.00 51 1013.5
20210731163134 72 58 0.0 3.0 0.00 0.00 0.00 48 1013.8
20210731161738 71 40 0.0 3.0 0.00 0.00 0.00 51 1014.0
20210731160116 70 226 0.0 2.0 0.00 0.00 0.00 52 1014.1
20210731154615 70 335 1.0 4.0 0.00 0.00 0.00 49 1014.0
20210731153122 70 8 0.0 3.0 0.00 0.00 0.00 52 1014.1
20210731151706 70 335 0.0 4.0 0.00 0.00 0.00 52 1014.1
20210731150144 69 263 0.0 4.0 0.00 0.00 0.00 54 1014.3
20210731144731 68 82 0.0 3.0 0.00 0.00 0.00 54 1014.4
20210731143158 67 48 1.0 4.0 0.00 0.00 0.00 57 1014.3
20210731141609 67 248 0.0 4.0 0.00 0.00 0.00 57 1014.3